Home   Weather   Olathe   Past weeks

Flag for USA Past Weather in Olathe, Kansas, USA — Yesterday and Last 2 Weeks

Now
58 °F

Clear.


Feels Like: 58 °F
Forecast: 50 / 71 °F
Wind: 5 mph from North

Location: Johnson County Executive Airport

Current Time: Sep 29, 2016 at 11:59:10 PM

Latest Report: Sep 29, 2016 at 10:53 PM


Visibility: 10 mi

Pressure: 30.29 "Hg

Humidity: 70%

Dew Point: 48 °F

Location of OlatheLocation

Past Weather in Olathe — Graph

°F

Olathe Temperature Yesterday

Maximum temperature yesterday: 67 °F (at 3:53 PM)
Minimum temperature yesterday: 54 °F (at 11:53 PM)
Average temperature yesterday: 61 °F

High & Low Weather Summary for the Past Weeks

 TemperatureHumidityPressure
High89 °F (Sep 20, 1:53 PM)100% (Sep 15, 5:53 AM)30.37 "Hg (Sep 15, 5:53 AM)
Low49 °F (Sep 29, 5:53 AM)27% (Sep 26, 1:53 PM)29.84 "Hg (Sep 28, 1:53 AM)
Average70 °F76%30.03 "Hg
* Reported Sep 14 10:53 PM — Sep 29 10:53 PM, Olathe, Weather by CustomWeather, © 2016

Note: Actual official high and low records may vary slightly from our data, if they occured in-between our weather recording intervals... More about our weather records

Advertising

Olathe Weather History for the Previous 24 Hours

Scroll right to see more
 ConditionsComfort  
Time TempWeatherWind HumidityBarometerVisibility
10:53 PM
Thu, Sep 29
58 °FClear.5 mph70%30.29 "Hg10 mi
9:53 PM60 °FClear.5 mph62%30.29 "Hg10 mi
8:53 PM61 °FClear.No wind62%30.28 "Hg10 mi
7:53 PM64 °FClear.5 mph54%30.27 "Hg10 mi
6:53 PM67 °FSunny.7 mph47%30.27 "Hg10 mi
5:53 PM69 °FSunny.9 mph44%30.27 "Hg10 mi
4:53 PM71 °FSunny.9 mph39%30.27 "Hg10 mi
3:53 PM70 °FSunny.8 mph42%30.29 "Hg10 mi
2:53 PM69 °FSunny.10 mph42%30.30 "Hg10 mi
1:53 PM68 °FSunny.10 mph47%30.33 "Hg10 mi
12:53 PM67 °FSunny.8 mph51%30.35 "Hg10 mi
11:53 AM63 °FSunny.14 mph60%30.36 "Hg10 mi
10:53 AM61 °FSunny.12 mph65%30.37 "Hg10 mi
9:53 AM57 °FSunny.10 mph74%30.37 "Hg10 mi
8:53 AM54 °FSunny.9 mph83%30.35 "Hg10 mi
7:53 AM50 °FSunny.7 mph89%30.34 "Hg10 mi
6:53 AM49 °FClear.6 mph90%30.33 "Hg10 mi
5:53 AM49 °FClear.7 mph90%30.30 "Hg10 mi
4:53 AM51 °FClear.6 mph83%30.29 "Hg10 mi
3:53 AM51 °FClear.5 mph83%30.28 "Hg10 mi
2:53 AM51 °FClear.6 mph86%30.27 "Hg10 mi
1:53 AM52 °FClear.6 mph80%30.27 "Hg10 mi
12:53 AM53 °FClear.5 mph77%30.26 "Hg10 mi
11:53 PM
Wed, Sep 28
54 °FClear.5 mph74%30.27 "Hg10 mi
Weather by CustomWeather, © 2016

See weather overviewHow to use our weather pages